Flag for France Weather past 2 weeks in Biarritz, France

Now
61 °F

Cool.


Feels Like: 61 °F
Forecast: 62 / 68 °F
Wind: 2 mph from Southwest

Location: Biarritz Airport

Current Time: Jul 30, 2015 at 12:41:50 AM

Latest Report: Jul 30, 2015 at 12:00 AM


Visibility: N/A

Pressure: 30.07 "Hg

Humidity: 94%

Dew point: 59 °F

Location of BiarritzLocation

Historic Weather in Biarritz — Graph

°F

Biarritz temperature yesterday

Maximum temperature yesterday: 72 °F (at 9:00 AM)
Minimum temperature yesterday: 63 °F (at 7:30 PM)
Average temperature yesterday: 66 °F

Past Weeks' High & Low Weather Summary

 TemperatureHumidityPressure
High91 °F (Jul 18, 5:00 PM)100% (Jul 17, 7:00 AM)30.18 "Hg (Jul 17, 7:00 AM)
Low55 °F (Jul 26, 5:00 AM)23% (Jul 26, 5:00 PM)29.86 "Hg (Jul 24, 7:30 AM)
Average71 °F79%30.03 "Hg
* Reported Jul 14 11:00 PM — Jul 29 11:00 PM, Biarritz, Weather by CustomWeather, © 2015

Note: Actual official high and low records may vary slightly from our data, if they occured in-between our weather recording intervals... More about our weather records

Advertising

Biarritz weather history for previous 24 hours

 ConditionsComfort  
Time TempWeatherWind HumidityBarometerVisibility
11:00 PM
Wed, Jul 29
63 °FMostly cloudy.2 mph88%30.07 "HgN/A
10:30 PM63 °FSunny.1 mph88%30.07 "Hg10 mi
10:00 PM63 °FMild.1 mph77%30.07 "HgN/A
9:30 PM63 °FOvercast.No wind83%30.07 "HgN/A
9:00 PM63 °FCloudy.2 mph83%30.07 "HgN/A
8:30 PM63 °FPartly sunny.1 mph83%30.04 "HgN/A
8:00 PM63 °FLight rain. Mostly cloudy.1 mph83%30.04 "HgN/A
7:30 PM63 °FLight rain. Partly sunny.6 mph83%30.07 "HgN/A
7:00 PM64 °FMostly cloudy.7 mph73%30.04 "HgN/A
6:30 PM66 °FOvercast.7 mph68%30.04 "HgN/A
6:00 PM66 °FOvercast.8 mph68%30.04 "HgN/A
5:30 PM66 °FOvercast.8 mph73%30.04 "HgN/A
5:00 PM66 °FOvercast.8 mph68%30.04 "HgN/A
4:30 PM66 °FMostly cloudy.9 mph73%30.04 "HgN/A
4:00 PM66 °FOvercast.9 mph78%30.04 "HgN/A
3:30 PM66 °FMore clouds than sun.12 mph83%30.04 "HgN/A
3:00 PM66 °FMostly cloudy.9 mph83%30.04 "HgN/A
2:30 PM66 °FDrizzle. Broken clouds.10 mph88%30.01 "HgN/A
2:00 PM66 °FMostly cloudy.7 mph88%30.01 "HgN/A
1:30 PM66 °FOvercast.7 mph83%30.01 "HgN/A
1:00 PM66 °FLow clouds.7 mph88%30.01 "HgN/A
12:30 PM66 °FDrizzle. Mostly cloudy.9 mph94%30.01 "Hg5 mi
12:00 PM66 °FDrizzle. Fog.10 mph94%29.98 "Hg3 mi
11:30 AM66 °FDrizzle. Fog.7 mph94%29.98 "Hg2 mi
11:00 AM68 °FLow clouds.10 mph88%29.98 "HgN/A
10:30 AM70 °FBroken clouds.10 mph88%29.98 "HgN/A
10:00 AM72 °FOvercast.6 mph78%29.95 "HgN/A
9:30 AM72 °FOvercast.3 mph73%29.95 "HgN/A
9:00 AM72 °FPartly sunny.3 mph73%29.95 "HgN/A
8:30 AM70 °FOvercast.3 mph78%29.92 "HgN/A
8:00 AM68 °FSunny.2 mph78%29.92 "Hg10 mi
7:30 AM66 °FClear.3 mph83%29.92 "Hg10 mi
7:00 AM64 °FClear.2 mph88%29.92 "Hg10 mi
5:30 AM64 °FClear.3 mph88%29.92 "Hg10 mi
5:00 AM64 °FClear.3 mph88%29.92 "Hg10 mi
4:30 AM64 °FClear.2 mph83%29.92 "Hg10 mi
4:00 AM66 °FClear.2 mph83%29.92 "Hg10 mi
3:30 AM66 °FClear.2 mph83%29.95 "Hg10 mi
3:00 AM66 °FClear.2 mph83%29.95 "Hg10 mi
2:30 AM66 °FClear.2 mph83%29.95 "Hg10 mi
2:00 AM66 °FClear.2 mph83%29.95 "Hg10 mi
1:30 AM68 °FClear.2 mph78%29.98 "Hg10 mi
1:00 AM68 °FClear.2 mph78%29.98 "Hg10 mi
Weather by CustomWeather, © 2015

See weather overviewHow to use our weather pages